Regional Weather Roundup
Issued by NWS

Home | Current Version | Previous Version | Text Only | Print | Product List | Glossary Off
Versions: 1 2 3 4 5 6 7 8 9 10 11 12 13 14 15 16 17 18 19 20 21 22 23 24 25 26 27 28 29 30 31 32 33 34 35 36 37 38 39 40 41 42 43 44 45 46 47 48 49 50

508
ASUS43 KBIS 030002
RWRND

NORTH DAKOTA REGIONAL WEATHER ROUNDUP
NATIONAL WEATHER SERVICE BISMARCK ND
700 PM CDT MON MAY 02 2016

NOTE: "FAIR" INDICATES FEW OR NO CLOUDS BELOW 12,000 FEET WITH NO
SIGNIFICANT WEATHER AND/OR OBSTRUCTIONS TO VISIBILITY.


NDZ001>003-009>011-017-030100-
NORTHWEST NORTH DAKOTA

CITY           SKY/WX    TMP DP  RH WIND       PRES   REMARKS
WILLISTON      SUNNY     73  26  17 N13       29.99R
6HR MIN TEMP:  71; 6HR MAX TEMP:  75;

MINOT          SUNNY     72  33  24 NE8       29.97S
MINOT AFB      SUNNY     68  36  30 N9        29.96S
$$

NDZ018>021-031>035-040>046-030100-
SOUTHWEST NORTH DAKOTA

CITY           SKY/WX    TMP DP  RH WIND       PRES   REMARKS
BISMARCK       SUNNY     64  41  42 NE8       29.97S
6HR MIN TEMP:  56; 6HR MAX TEMP:  66;

DICKINSON      SUNNY     65  31  28 NE16      29.98R
GARRISON         N/A     67  36  31 VRB5      29.98R
6HR MIN TEMP:  65; 6HR MAX TEMP:  69;

HETTINGER ARPT SUNNY     65  32  29 N17G28    30.00R
$$

NDZ004>008-012>016-024-026-027-054-030100-
NORTHEAST NORTH DAKOTA

CITY           SKY/WX    TMP DP  RH WIND       PRES   REMARKS
GRAND FORKS    PTSUNNY   70  30  22 CALM      29.94S
GRND FRKS AFB  PTSUNNY   70  27  19 W6        29.95S
DEVILS LAKE    SUNNY     65  33  30 SW6       29.99S
$$

NDZ022-023-025-028>030-036>039-047>053-030100-
SOUTHEAST NORTH DAKOTA

CITY           SKY/WX    TMP DP  RH WIND       PRES   REMARKS
FARGO          MOSUNNY   69  31  24 S3        29.95S
6HR MIN TEMP:  67; 6HR MAX TEMP:  71;

JAMESTOWN      SUNNY     59  38  45 S14       29.99R
$$





USA.gov is the U.S. government's official web portal to all federal, state and local government web resources and services.